Regional Weather Roundup
Issued by NWS Green Bay, WI

Home | Current Version | Previous Version | Graphics & Text | Print | Product List | Glossary Off
Versions: 1 2 3 4 5 6 7 8 9 10 11 12 13 14 15 16 17 18 19 20 21 22 23 24 25 26 27 28 29 30 31 32 33 34 35 36 37 38 39 40 41 42 43 44 45 46 47 48 49 50

000
ASUS43 KGRB 290611
RWRGRB

NORTH-CENTRAL AND NORTHEAST WISCONSIN REGIONAL WEATHER ROUNDUP
NATIONAL WEATHER SERVICE GREEN BAY WI
100 AM CDT MON AUG 29 2016

WIZ005-009-010>012-018-019-290700-
NORTH CENTRAL WISCONSIN

CITY           SKY/WX    TMP DP  RH WIND       PRES   REMARKS
IRONWOOD       FAIR      64  61  90 E3        30.19F
MANITOWISH WTR FAIR      59  59 100 SE5       30.22F
ARBOR VITAE    FAIR      62  60  94 CALM      30.23F
EAGLE RIVER    FAIR      56  56 100 CALM      30.24S FOG
LAND O LAKES   FAIR      54  54 100 CALM      30.25S
RHINELANDER    FAIR      60  60 100 CALM      30.25S
PHILLIPS       FAIR      63  63  98 SE5       30.21F
ANTIGO         FAIR      60  60  99 CALM      30.26R
TOMAHAWK       FAIR      56  55  96 CALM      30.24S FOG
MERRILL        FAIR      57  57 100 NE3       30.23S
$$

WIZ013-073-290700-
NORTHEAST WISCONSIN

CITY           SKY/WX    TMP DP  RH WIND       PRES   REMARKS
IRON MOUNTAIN  FAIR      60  57  89 CALM      30.23S
MARINETTE      FAIR     N/A N/A N/A CALM      30.24S FOG
OCONTO         FAIR      59  59  98 CALM      30.23S
$$

WIZ017-030-035>037-045-290700-
CENTRAL WISCONSIN

CITY           SKY/WX    TMP DP  RH WIND       PRES   REMARKS
MEDFORD        FAIR      60  60 100 SE3       30.22S FOG
WAUSAU         FAIR      63  62  97 E5        30.22R
MOSINEE        FAIR      61  61 100 E3        30.24S FOG
MARSHFIELD     FAIR      65  62  90 E3        30.22R
WISC RAPIDS    FAIR      66  65  96 CALM      30.23R
STEVENS POINT  FAIR      61  60  98 CALM      30.23S
WAUPACA        FAIR      65  64  98 CALM      30.23R
SHAWANO        FAIR      67  64  91 CALM      30.24S
CLINTONVILLE   FOG       63  63 100 CALM      30.23S VSB 1/2
WAUTOMA        NOT AVBL
$$

WIZ038-039-048-051-290700-
FOX VALLEY

CITY           SKY/WX    TMP DP  RH WIND       PRES   REMARKS
NWS GREEN BAY  FAIR      61  61 100 CALM      30.23S
APPLETON       FAIR      68  66  94 E5        30.22R
OSHKOSH        FAIR      64  62  93 S6        30.23R
FOND DU LAC    FAIR      64  62  93 CALM      30.24R
$$

WIZ022-050-052-290700-
EAST CENTRAL WISCONSIN

CITY           SKY/WX    TMP DP  RH WIND       PRES   REMARKS
EPHRAIM        FAIR      62  61  98 S3        30.24R
WASHINGTON ISL NOT AVBL
STURGEON BAY   FAIR      63  62  97 S3        30.25R
MANITOWOC      FAIR      61  59  94 CALM      30.24S FOG
SHEBOYGAN      FAIR      60  59  96 SW3       30.24S FOG
$$

LMZ563-521-522-541>543-290700-
LAKESHORE

STATION/POSITION TIME  TEMP    WIND        PRES    VSBY  WAVE
                       AIR SEA DIR/SP/G                  HT/PER
                 (UTC) (F)     (DEG/KT/KT) (MB)    (MI)  (FT/S)
SHEBOYGAN LKSHOR 0600   65     260/  3/  3 1023.6S
KEWAUNEE LKSHORE 0500   62        CALM     1023.2R
NORTHPORT PIER   0500   67     180/  3/  5 1023.4S
N MID LAKE BUOY  0550   70 71  110/  4/  6 1023.5R         0
S GREEN BAY BUOY 0530   69 72  180/  6/  8 1023.1R
CHAMBERS ISLAND  0500   62     140/  2/  2 1023.4R
MENOMINEE LKSHOR 0500   69     180/  6/  7 1022.7R
$$




USA.gov is the U.S. government's official web portal to all federal, state and local government web resources and services.